Find Starlink 4405

NORAD ID: 53201 Int'l Des: 2022-084 Owner: SPXS Country: US Constellation: starlink operational
LEOCIRCULARRETROGRADESSO

当前视图

正在加载3D地球...

About Starlink 4405

Starlink 4405 (NORAD 53201) is a starlink constellation satellite (v1.5) launched Jul 22, 2022 by SPXS of US. It operates in LEO, CIRCULAR, RETROGRADE, SSO orbit with a mass of 297.00 kg.

即将过境

Passes for default location (London). Set your location on the main map for personalized predictions.

高度历史

Loading altitude history...

两行轨道根数

1 53201U 22084N 26209.16668980 .00055701 00000-0 15346-2 0 9999
2 53201 97.5957 273.4357 0001465 84.5355 190.6735 15.36944945 5884
Epoch: Jul 28, 2026 • Age: 15 hours

当前状态

高度 466.9 km
远地点 / 近地点 N/A
速度 7.64 km/s
星下点 76.14°N, 13.55°E
发射日期 Jul 22, 2022
运行时间 4 years
类型 internet

技术详情

分类 Payload
质量 297.00 kg
干质量 275.00 kg
总质量 297.00 kg
长度 0.20 m
直径 2.80 m
跨度 9.00 m
形状 Box + pan
制造商 SPXS
平台类型 Starlink
阶段状态 In Orbit
所有者/国家 SPXS/US

Most Searched